Regional Weather Roundup
Issued by NWS Newport/Morehead, NC

Current Version | Previous Version | Text Only | Print | Product List | Glossary Off
Versions: 1 2 3 4 5 6 7 8 9 10 11 12 13 14 15 16 17 18 19 20 21 22 23 24 25 26 27 28 29 30 31 32 33 34 35 36 37 38 39 40 41 42 43 44 45 46 47 48 49 50
000 ASUS42 KMHX 260113 RWRMHX WEATHER ROUNDUP FOR EASTERN NORTH CAROLINA NATIONAL WEATHER SERVICE NEWPORT/MOREHEAD CITY NC 900 PM EDT THU MAY 25 2017 NOTE: "FAIR" INDICATES FEW OR NO CLOUDS BELOW 12,000 FEET WITH NO SIGNIFICANT WEATHER AND/OR OBSTRUCTIONS TO VISIBILITY NCZ015>017-031-032-045>047-102-103-260200- NORTH COAST CITY SKY/WX TMP DP RH WIND PRES REMARKS EDENTON PTCLDY 68 58 68 CALM 29.63R ELIZABETH CITY MOCLDY 63 56 78 W9 29.61R KITTY HAWK CLEAR 67 58 72 SW5 29.60R MANTEO CLEAR 67 58 71 W17 29.62R $$ NCZ045>047-081-094-103-104-260200- CENTRAL COAST CITY SKY/WX TMP DP RH WIND PRES REMARKS FRISCO CLEAR 71 57 61 W16G30 29.66R $$ NCZ095-097-098-100-101-260200- SOUTHERN COAST CITY SKY/WX TMP DP RH WIND PRES REMARKS BEAUFORT CLEAR 72 59 63 W15G30 29.70R CEDAR ISLAND NOT AVBL JACKSONVILLE CLEAR 67 57 70 SW9 29.70R PINEY ISLAND CLEAR N/A N/A N/A SW13 29.68R WILMINGTON CLEAR 68 56 65 SW9 29.73R $$ NCZ011>013-027>030-043-044-078>080-089-090>093-098-260200- COASTAL PLAIN CITY SKY/WX TMP DP RH WIND PRES REMARKS AHOSKIE N/A 58 58 98 CALM 29.62R CLINTON CLEAR 70 55 59 SW7 29.69R ELIZABETHTOWN CLEAR 70 54 57 SW6 29.71R GOLDSBORO PTCLDY 69 58 68 SW8 29.65R GREENVILLE PTCLDY 66 55 68 SW6 29.68R HAVELOCK CLEAR 68 55 63 SW12 29.70 KENANSVILLE MOCLDY 68 55 64 SW7 29.68R KINSTON PTCLDY 70 55 60 SW7 29.67R NEW BERN PTCLDY 66 57 72 SW12 29.69R RICHLANDS CLEAR 66 57 72 S9 29.70R ROCKY MOUNT CLOUDY 65 58 78 SW7 29.65R WASHINGTON PTCLDY 64 60 87 CALM 29.65R WHITEVILLE CLEAR 69 54 57 SW6 29.73R $$ AMZ130-135-150-152-154-156-158-170-250-252-270-ANZ085-086-088-633-658-670-260200- MARINE OBSERVATIONS STATION/POSITION TIME TEMP WIND PRES WAVE SWELL AIR SEA DIR/SP/G HT/PER HT/PER (UTC) (F) (DEG/KT/KT) (MB) (FT/S) (FT/S) CHESAPEAKE LIGHT NOT AVBL 64 E VA BEACH 0050 64 63 250/ 16/ 19 1001.3 8/ 8 5/ 8 DUCK 0042 69 62 240/ 16/ 20 1001.9 2 E DUCK 0100 63 N/A 3/ 8 OREGON INLET 0042 70 72 230/ 19/ 24 1002.8 13E OREGON INLT 0048 65 N/A 7/ 8 5/ 8 HATTERAS CG 0042 70 74 240/ 17/ 25 1004.1 DIAMOND BUOY 0050 73 78 250/ 27/ 33 1003.8 10/ 8 CAPE LOOKOUT 0100 71 250/ 19/ 28 1005.4 BEAUFORT LAB 0042 72 72 240/ 10/ 16 1004.7 30 SE NEW RVR IN 0008 73 75 250/ 25/ 33 1004.8 30 SE NEW RVR IN 0043 75 N/A 9/ 8 2/11 27 SE WRIGHTSVLE 0008 73 75 240/ 21/ 29 1005.0 5 SE WRIGHTSVLE 0008 73 74 240/ 16/ 25 1005.8 225 S CAPE HAT 0050 77 77 250/ 21/ 29 1010.0 10/ 8 41 SE CHARLESTON 0050 74 76 250/ 19/ 23 1009.5 6/ 6 2/ 8 $$

USA.gov is the U.S. government's official web portal to all federal, state and local government web resources and services.